Location: ??????
(41.3747°N, 22.5491°E)
Time: 07:23:14
(UTC+00:00)

CZ-4B R/B - Pass Details

Date: 01 December 2020
Orbit: 809 x 881 km, 99.1° (Epoch: 17 January)

Event Time Altitude Azimuth Distance (km) Brightness Sun altitude
Rises 15:59:41 0° 167° (SSE) 3,341 6.4 -10.8°
Reaches altitude 10° 16:02:01 10° 169° (S) 2,405 5.7 -11.3°
Maximum altitude 16:07:20 79° 256° (WSW) 832 3.3 -12.2°
Drops below altitude 10° 16:12:39 10° 343° (NNW) 2,403 5.6 -13.1°
Sets 16:15:00 0° 345° (NNW) 3,338 6.3 -13.6°
